Retour au catalogue

STARLINK-32472

ActifCommunicationsVLEO
NORAD 61846·PAYLOAD·🇺🇸 United States

Lancé Nov 7, 2024 depuis Cape Canaveral Space Force Station

Loading…

Prochains Passages (prochaines 24 heures)

TLE

FraisSource: CelesTrak SupGP

Époque: Sep 15, 2026, 01:58 UTC

1 61846C 24202B   26258.08243056 -.00031775  00000+0 -11508-2 0  2585
2 61846  43.0025 237.6971 0001214 267.2869 196.7930 15.27597725    10

Suivez STARLINK-32472 en temps réel avec AllMySat

Download on the App Store